[[{"header":{"parameterUnit":"m.s-1","parameterCategory":1,"la1":30.2991,"la2":30.254,"lo1":-89.0895,"lo2":-89.0444,"dy":0.0017,"dx":0.0017,"nx":28,"ny":28,"refTime":"2025-03-19T21:00:00:Z","depth":0,"parameterNumber":2,"parameterNumberName":"U-component_of_WINDS"},"data":[0,0,0,0,0,0,0,0,0,0,0,0,0,0,0,0,0,0,0,0,0,0,0,0,0,0,0,0,0,0,0,0,0,0,0,0,0,0,0,0,0,0,0,0,0,0,0,0,0,0,0,0,0,0,0,0,0,0,2.1458,2.1457,0,2.1374,2.1373,2.1372,2.1294,2.1293,2.1292,2.1291,2.1205,2.1204,2.1202,0,0,0,0,0,0,0,0,0,0,0,0,0,2.1549,2.1548,2.1458,2.1457,2.1456,2.1374,2.1373,2.1372,2.1294,2.1293,2.1292,2.1291,2.1205,2.1204,2.1202,0,0,0,0,0,0,0,0,0,0,0,0,0,2.1492,2.1548,2.1458,2.1407,2.1402,2.1374,2.1373,2.1371,2.1294,2.1293,2.1291,2.129,2.1206,2.1204,2.1202,2.1218,0,0,2.1195,2.1194,0,0,0,0,0,0,0,0,2.1495,2.1489,2.1415,2.141,2.1404,2.1343,2.1373,2.132,2.1295,2.1335,2.1291,2.1289,2.1252,2.1246,2.1233,2.1214,2.121,2.1195,2.1194,2.1193,2.1192,0,0,0,0,0,0,0,2.1499,2.1492,2.1424,2.1415,2.1408,2.1388,2.1378,2.1363,2.1303,2.1331,2.1326,2.1317,2.1249,2.1236,2.1231,2.1209,2.1195,2.1193,2.1192,2.1191,2.1197,2.1198,0,0,0,0,0,0,2.1511,2.1496,2.1427,2.1422,2.1447,2.1388,2.1377,2.1364,2.1303,2.1292,2.1318,2.1313,2.124,2.1233,2.1227,2.1241,2.1193,2.1191,2.119,2.1196,2.1197,2.1199,0,0,0,0,0,0,2.1514,2.1506,2.143,2.1457,2.1446,2.1388,2.1374,2.1363,2.135,2.1292,2.1281,2.1316,2.1238,2.123,2.1221,2.1237,2.119,2.1188,2.1194,2.1196,2.1198,2.127,0,0,0,0,0,0,2.1517,2.1507,2.1513,2.1458,2.1445,2.1425,2.1375,2.1363,2.1347,2.134,2.1287,2.1277,2.1237,2.1224,2.1219,2.1233,2.1187,2.1192,2.1195,2.1197,2.1266,2.1274,2.1281,0,0,0,0,0,2.152,2.1536,2.1514,2.1506,2.1451,2.1427,2.1419,2.1372,2.1348,2.1353,2.1316,2.1279,2.1237,2.1224,2.1217,2.1231,2.1191,2.1194,2.1197,2.1262,2.1272,2.1281,0,0,0,0,0,0,2.1595,2.1528,2.1502,2.1501,2.147,2.1413,2.1418,2.1385,2.1359,2.1354,2.1297,2.1285,2.1282,2.1256,2.1243,2.1243,2.1209,2.1211,2.126,2.127,2.1277,2.1283,2.1185,0,0,0,0,0,2.1611,2.1597,2.154,2.1544,2.153,2.1477,2.1465,2.1431,2.1397,2.1383,2.1345,2.1313,2.1292,2.1279,2.1257,2.1262,2.1249,2.1268,2.1276,2.1283,2.1285,2.1284,2.1292,2.1209,2.1209,2.1209,0,0,2.1644,2.1607,2.1601,2.1558,2.153,2.1517,2.1467,2.1454,2.1443,2.1381,2.1369,2.1341,2.1301,2.1298,2.1295,2.1276,2.1305,2.1287,2.1293,2.1291,2.1288,2.1296,2.1303,2.1211,2.1211,2.1211,0,0,2.1698,2.1669,2.1669,2.1642,2.16,2.1565,2.1565,2.1513,2.1492,2.1479,2.1432,2.1418,2.1384,2.1357,2.1339,2.1383,2.1347,2.1377,2.1418,2.1418,2.1424,2.143,2.1445,2.1451,2.138,2.138,2.138,0,2.1745,2.1723,2.1673,2.1664,2.1646,2.1589,2.1589,2.1565,2.1518,2.1507,2.1487,2.1442,2.1411,2.1401,2.1412,2.1399,2.1397,2.1383,2.1428,2.1433,2.1437,2.145,2.1456,2.1384,2.1383,2.1383,2.1383,0,2.1782,2.1767,2.1772,2.1729,2.1712,2.1707,2.1656,2.1645,2.1613,2.158,2.1568,2.1529,2.1497,2.1493,2.1462,2.1478,2.1467,2.1438,2.1402,2.145,2.1461,2.1466,2.1389,2.1388,2.1387,2.1386,0,0,2.1879,2.1808,2.1811,2.179,2.174,2.1728,2.172,2.169,2.1681,2.1651,2.1642,2.1615,2.1587,2.1567,2.1532,2.1533,2.1569,2.1503,2.1501,2.1516,2.1583,2.1605,2.1611,2.1546,2.1546,2.1547,2.1586,0,2.1923,2.1906,2.1862,2.1859,2.1844,2.179,2.1784,2.1752,2.1721,2.1704,2.167,2.1651,2.1617,2.1604,2.1602,2.1565,2.1582,2.1562,2.1536,2.1536,2.1547,2.1617,2.164,2.1678,2.159,2.1591,2.1592,0,2.1972,2.1946,2.1941,2.1892,2.1884,2.1879,2.1847,2.1832,2.1795,2.1772,2.175,2.1712,2.17,2.1668,2.1651,2.1639,2.1626,2.1606,2.1606,2.1601,2.1566,2.1613,2.169,2.1695,2.1599,2.1598,2.1598,0,2.2042,2.2005,2.1998,2.1982,2.1924,2.1922,2.1898,2.1859,2.1844,2.1816,2.1805,2.1777,2.1761,2.1739,2.1694,2.1675,2.1682,2.1646,2.1662,2.1663,2.1665,2.1665,2.174,2.1659,2.1659,2.1659,2.1659,0,2.2095,2.2094,2.2028,2.2023,2.2021,2.197,2.1968,2.1939,2.1905,2.1894,2.1846,2.1836,2.1777,2.176,2.1725,2.1716,2.171,2.169,2.1681,2.1694,2.1696,2.1683,2.1679,2.166,2.166,2.166,2.166,0,2.2172,2.2128,2.2116,2.2063,2.2049,2.2049,2.2003,2.1997,2.1963,2.1949,2.1942,2.189,2.1867,2.182,2.1785,2.1761,2.176,2.1744,2.1773,2.1766,2.1784,2.1783,2.1852,2.1858,2.1776,2.1777,2.1778,0,2.2208,2.2206,2.2153,2.2142,2.212,2.2103,2.2086,2.2036,2.2021,2.1979,2.1977,2.1951,2.1928,2.1894,2.1852,2.1825,2.1807,2.1833,2.1802,2.1815,2.1806,2.1806,2.1805,2.184,2.1841,2.1842,2.1842,0,2.2277,2.2255,2.2234,2.2205,2.2188,2.2163,2.2135,2.2128,2.2072,2.2057,2.2034,2.2016,2.198,2.1954,2.1921,2.1895,2.1859,2.1853,2.1855,2.1867,2.1883,2.1874,2.179,2.1851,2.185,2.185,2.1849,2.1849,2.2333,2.2328,2.229,2.2268,2.2243,2.2218,2.2209,2.2174,2.2154,2.2121,2.2093,2.2072,2.2035,2.1986,2.1963,2.1945,2.1928,2.1931,2.1931,2.1933,2.1938,2.1888,2.1939,2.1939,2.1939,2.1938,2.1938,0,2.2398,2.2371,2.2351,2.2314,2.2297,2.2266,2.2234,2.2221,2.2203,2.2172,2.215,2.2123,2.2098,2.2054,2.2025,2.202,2.2002,2.2013,2.2013,2.2007,2.1956,2.1956,2.2028,2.2028,2.2028,2.2028,2.2028,2.2028,2.2429,2.242,2.2394,2.2371,2.2344,2.2323,2.2307,2.2284,2.2259,2.2231,2.221,2.2182,2.2146,2.2114,2.2089,2.2077,2.2068,2.2084,2.2067,2.2019,2.2011,2.2003,2.2003,2.2083,2.2083,2.2119,2.212,2.212]},{"header":{"parameterUnit":"m.s-1","parameterCategory":1,"la1":30.2991,"la2":30.254,"lo1":-89.0895,"lo2":-89.0444,"dy":0.0017,"dx":0.0017,"nx":28,"ny":28,"refTime":"2025-03-19T21:00:00:Z","depth":0,"parameterNumber":3,"parameterNumberName":"V-component_of_WINDS"},"data":[0,0,0,0,0,0,0,0,0,0,0,0,0,0,0,0,0,0,0,0,0,0,0,0,0,0,0,0,0,0,0,0,0,0,0,0,0,0,0,0,0,0,0,0,0,0,0,0,0,0,0,0,0,0,0,0,0,0,5.1251,5.1252,0,5.1384,5.1386,5.1387,5.1392,5.139,5.1389,5.1387,5.1521,5.1526,5.1531,0,0,0,0,0,0,0,0,0,0,0,0,0,5.0996,5.1001,5.125,5.1252,5.1254,5.1384,5.1386,5.1387,5.1392,5.139,5.1388,5.1386,5.1519,5.1525,5.1531,0,0,0,0,0,0,0,0,0,0,0,0,0,5.1116,5.1002,5.125,5.1272,5.1275,5.1383,5.1386,5.1388,5.1393,5.139,5.1388,5.1386,5.1517,5.1525,5.1532,5.1627,0,0,5.1555,5.1559,0,0,0,0,0,0,0,0,5.1109,5.1125,5.1267,5.1271,5.1274,5.1369,5.1345,5.1468,5.1393,5.1348,5.1387,5.1384,5.1472,5.1483,5.1513,5.1633,5.1639,5.1556,5.156,5.1564,5.1566,0,0,0,0,0,0,0,5.1101,5.1119,5.1303,5.1269,5.1274,5.1274,5.1288,5.1368,5.1422,5.1352,5.1352,5.1368,5.1474,5.1506,5.1517,5.1641,5.1556,5.1562,5.1567,5.157,5.1845,5.1847,0,0,0,0,0,0,5.1089,5.1112,5.1299,5.1307,5.1184,5.128,5.1296,5.1341,5.1421,5.1431,5.137,5.1368,5.1494,5.1508,5.1521,5.1638,5.1564,5.1571,5.1575,5.1842,5.1845,5.1848,0,0,0,0,0,0,5.1083,5.1105,5.1294,5.121,5.1234,5.1287,5.1337,5.1345,5.1377,5.1435,5.1444,5.1394,5.1493,5.1511,5.1601,5.1643,5.1574,5.1581,5.1839,5.1843,5.1847,5.1871,0,0,0,0,0,0,5.1076,5.1103,5.1141,5.1211,5.1239,5.1372,5.134,5.1349,5.1391,5.1389,5.146,5.1469,5.1492,5.1589,5.1608,5.1652,5.1587,5.1835,5.184,5.1845,5.1867,5.1876,5.1883,0,0,0,0,0,5.1067,5.1141,5.1142,5.1165,5.1287,5.1374,5.139,5.1417,5.1394,5.1432,5.1468,5.1467,5.1635,5.1599,5.162,5.1666,5.1833,5.1839,5.1845,5.1864,5.1874,5.1883,0,0,0,0,0,0,5.1073,5.1151,5.1153,5.1253,5.1307,5.1375,5.1423,5.1427,5.1488,5.1484,5.1513,5.1529,5.1618,5.1651,5.1609,5.1762,5.1731,5.1742,5.1738,5.1748,5.1756,5.1747,5.1593,0,0,0,0,0,5.1087,5.1153,5.1216,5.1298,5.1325,5.137,5.1409,5.1425,5.1481,5.1504,5.1547,5.1602,5.1667,5.1709,5.1772,5.1871,5.1887,5.1914,5.1922,5.1928,5.1937,5.1993,5.2005,5.1868,5.1868,5.1868,0,0,5.1115,5.1165,5.1205,5.1301,5.1345,5.1412,5.1389,5.146,5.151,5.1515,5.1603,5.1636,5.1699,5.1794,5.1838,5.1824,5.1978,5.1936,5.1941,5.1947,5.2,5.2013,5.2025,5.1873,5.1872,5.1871,0,0,5.12,5.1244,5.1318,5.1363,5.143,5.1459,5.1476,5.1544,5.1566,5.1656,5.1661,5.1719,5.1831,5.1875,5.1912,5.2014,5.2015,5.2033,5.2076,5.213,5.2141,5.215,5.2187,5.22,5.2042,5.2042,5.2042,0,5.1226,5.1328,5.1355,5.1427,5.1469,5.1477,5.1552,5.1593,5.1677,5.1705,5.1688,5.1829,5.1871,5.1977,5.2002,5.2031,5.2052,5.2026,5.2137,5.2147,5.2157,5.2192,5.2206,5.2044,5.2044,5.2044,5.2044,0,5.1357,5.1427,5.1478,5.156,5.1608,5.168,5.1718,5.1763,5.1774,5.1804,5.1895,5.1946,5.202,5.2045,5.2057,5.2153,5.2143,5.2131,5.2101,5.2171,5.2205,5.2219,5.2047,5.2046,5.2046,5.2045,0,0,5.1451,5.1547,5.1565,5.1603,5.1677,5.1732,5.1804,5.1877,5.1915,5.1972,5.2034,5.2128,5.2118,5.216,5.2176,5.2223,5.2301,5.2206,5.2207,5.2222,5.2411,5.242,5.2435,5.2301,5.2304,5.2306,5.2406,0,5.1545,5.1676,5.1702,5.1815,5.1881,5.1889,5.1952,5.2004,5.2034,5.2093,5.2125,5.2192,5.2173,5.2199,5.2245,5.2281,5.2339,5.2274,5.2358,5.2361,5.2344,5.2453,5.2463,5.2555,5.2419,5.2421,5.2423,0,5.1672,5.1734,5.1854,5.192,5.1948,5.2005,5.2074,5.213,5.2189,5.2207,5.2255,5.2266,5.234,5.2305,5.2409,5.2364,5.24,5.2423,5.2427,5.2437,5.2397,5.2466,5.2585,5.2599,5.2444,5.2442,5.2441,0,5.173,5.1843,5.1929,5.1961,5.204,5.2079,5.2114,5.217,5.2212,5.2272,5.23,5.2367,5.2404,5.2456,5.2484,5.2456,5.2586,5.2553,5.2603,5.2603,5.2631,5.2629,5.2758,5.2652,5.2652,5.2652,5.2651,0,5.1833,5.1906,5.1956,5.201,5.2092,5.2121,5.2201,5.2235,5.2285,5.2344,5.2354,5.2409,5.2443,5.2503,5.2526,5.2608,5.2624,5.2641,5.2647,5.2641,5.2639,5.2666,5.2661,5.2655,5.2654,5.2654,5.2653,0,5.1912,5.1948,5.2044,5.2111,5.2129,5.2187,5.2244,5.2295,5.2325,5.24,5.2419,5.2465,5.2536,5.257,5.2657,5.2672,5.2766,5.2767,5.2747,5.275,5.2798,5.2793,5.2949,5.2971,5.285,5.2851,5.2852,0,5.1976,5.2033,5.2106,5.2147,5.2183,5.2249,5.2293,5.2323,5.2367,5.2438,5.2481,5.2553,5.2612,5.2725,5.2766,5.2833,5.2836,5.2885,5.2846,5.2839,5.2838,5.2835,5.2841,5.2893,5.2894,5.2895,5.2896,0,5.2086,5.2101,5.2164,5.2234,5.2286,5.2342,5.2397,5.2429,5.2468,5.2518,5.2591,5.2637,5.2727,5.2798,5.2868,5.2902,5.2906,5.2908,5.2923,5.2919,5.2906,5.2915,5.2768,5.2905,5.2904,5.2903,5.2903,5.2902,5.216,5.2211,5.2271,5.2341,5.2386,5.2437,5.2489,5.2525,5.2588,5.2664,5.2677,5.2756,5.2812,5.2906,5.2943,5.3004,5.2992,5.3014,5.302,5.3025,5.3029,5.2895,5.3016,5.3016,5.3016,5.3016,5.3016,0,5.2271,5.231,5.2374,5.2452,5.2506,5.2506,5.2566,5.2612,5.2681,5.2734,5.2792,5.2877,5.2945,5.2992,5.3061,5.3101,5.3105,5.3118,5.3116,5.3124,5.3034,5.3015,5.3115,5.3114,5.3114,5.3114,5.3114,5.3114,5.2336,5.2423,5.2445,5.2554,5.2592,5.267,5.2704,5.2751,5.2794,5.2888,5.2946,5.2976,5.3026,5.3099,5.3162,5.3174,5.3199,5.3214,5.3225,5.3141,5.3131,5.3121,5.3103,5.3219,5.3219,5.331,5.3311,5.3312]}]]